Flag for India Weather past 2 weeks in Ahmedabad, Gujarat, India

Now
93 °F

Clear.


Feels Like: 94 °F
Forecast: 77 / 109 °F
Wind: 5 mph from West

Location: Ahmadabad Airport

Current Time: Apr 19, 2015 at 11:03:10 AM

Latest Report: Apr 19, 2015 at 10:10 AM


Visibility: 2 mi

Pressure: 29.77 "Hg

Humidity: 36%

Dew point: 63 °F

Location of AhmedabadLocation

Historic Weather in Ahmedabad — Graph

°F

Ahmedabad temperature yesterday

Maximum temperature yesterday: 113 °F (at 2:40 PM)
Minimum temperature yesterday: 84 °F (at 7:10 AM)
Average temperature yesterday: 98 °F

Past Weeks' High & Low Weather Summary

 TemperatureHumidityPressure
High113 °F (Apr 18, 2:40 PM)83% (Apr 12, 5:40 PM)29.95 "Hg (Apr 12, 5:40 PM)
Low68 °F (Apr 12, 5:40 PM)13% (Apr 18, 2:40 PM)29.56 "Hg (Apr 18, 5:10 PM)
Average90 °F43%29.77 "Hg
* Reported Apr 4 10:40 AM — Apr 19 9:40 AM, Ahmedabad, Weather by CustomWeather, © 2015

Note: Actual official high and low records may vary slightly from our data, if they occured in-between our weather recording intervals... More about our weather records

Advertising

Ahmedabad weather history for previous 24 hours

 ConditionsComfort  
Time TempWeatherWind HumidityBarometerVisibility
9:40 AM
Sun, Apr 19
90 °FClear.6 mph41%29.77 "Hg2 mi
8:40 AM86 °FClear.5 mph43%29.77 "Hg1 mi
8:10 AM84 °FClear.6 mph43%29.77 "Hg1 mi
7:40 AM82 °FPassing clouds.3 mph48%29.74 "Hg2 mi
6:10 AM81 °FPassing clouds.No wind48%29.71 "Hg2 mi
5:10 AM81 °FClear.No wind45%29.68 "Hg2 mi
4:40 AM82 °FClear.3 mph42%29.68 "Hg2 mi
3:40 AM84 °FClear.5 mph37%29.65 "Hg2 mi
3:10 AM86 °FClear.5 mph33%29.68 "Hg2 mi
2:40 AM88 °FClear.6 mph31%29.68 "Hg2 mi
2:10 AM88 °FClear.5 mph29%29.68 "Hg2 mi
1:40 AM88 °FClear.6 mph29%29.68 "Hg2 mi
1:10 AM88 °FClear.5 mph27%29.68 "Hg2 mi
12:40 AM86 °FClear.6 mph29%29.71 "Hg2 mi
12:10 AM88 °FClear.7 mph25%29.71 "Hg2 mi
11:40 PM
Sat, Apr 18
90 °FClear.6 mph24%29.71 "Hg2 mi
11:10 PM91 °FClear.6 mph23%29.71 "Hg2 mi
10:40 PM91 °FClear.7 mph24%29.71 "Hg2 mi
9:40 PM93 °FClear.6 mph34%29.68 "Hg2 mi
8:40 PM97 °FClear.7 mph32%29.65 "Hg2 mi
8:10 PM100 °FClear.9 mph18%29.62 "Hg2 mi
7:40 PM104 °FClear.8 mph15%29.62 "Hg2 mi
7:10 PM104 °FClear.9 mph15%29.59 "Hg2 mi
6:40 PM108 °FClear.12 mph14%29.59 "Hg3 mi
6:10 PM109 °FClear.12 mph14%29.59 "Hg3 mi
5:40 PM109 °FClear.12 mph14%29.59 "Hg3 mi
5:10 PM111 °FClear.12 mph14%29.56 "Hg3 mi
4:40 PM113 °FClear.7 mph14%29.59 "Hg3 mi
4:10 PM113 °FClear.10 mph14%29.59 "Hg3 mi
3:40 PM113 °FClear.10 mph14%29.59 "Hg3 mi
3:10 PM113 °FClear.8 mph14%29.62 "Hg3 mi
2:40 PM113 °FExtremely hot.9 mph13%29.62 "HgN/A
2:10 PM111 °FClear.14 mph15%29.65 "Hg3 mi
1:40 PM109 °FClear.12 mph17%29.65 "Hg3 mi
1:10 PM109 °FClear.8 mph17%29.68 "Hg3 mi
12:10 PM104 °FClear.8 mph21%29.74 "Hg3 mi
11:40 AM104 °FClear.7 mph23%29.74 "Hg3 mi
11:10 AM100 °FClear.8 mph25%29.77 "Hg3 mi
Weather by CustomWeather, © 2015

See weather overviewHow to use our weather pages